Погода в Ленинском

Россия / Ростовская область     47˚10′35″N   40˚53′21″E
темп.,
°C
ветер,
м/с
пор.,
м/с
влажн.,
%
обл.,
%
осадки,
мм/ч
давл.,
гПа
погр.,
м
15 января, пт
пт1500:00−1˚св3475100 0.0 1008198
03:00−1˚св3575100 0.0 1007373
06:00−2˚св5893100 1.6 1006437
09:00−3˚ссв4695100 5.5 1007372
12:00−3˚зсз2295100 2.1 1007216
15:00−2˚з4690100 2.7 1008619
18:00−3˚зсз369299 0.1 1009474
21:00−5˚з489676 0.1 1011184
16 января, сб
сб1600:00−4˚зюз369412 0.0 1011140
03:00−5˚юз48916 0.0 1012164
06:00−3˚ююз6129233 0.0 1012344
09:00−4˚з6109062 0.3 1014568
12:00−5˚з587999 0.0 1017904
15:00−5˚з588095 0.0 1016878
18:00−8˚зсз128454 0.0 101721
21:00−8˚юз118455 0.0 101821
17 января, вс
вс1700:00−8˚св128499 0.0 101724
03:00−9˚ссв348893 0.0 101679
06:00−9˚св4787100 0.0 1015216
09:00−8˚св5884100 0.0 1014356
12:00−7˚всв6983100 0.0 1013491
15:00−8˚св81293100 1.3 1011435
18:00−8˚св71294100 1.5 1011485
21:00−8˚всв71294100 3.1 1011540
18 января, пн
пн1800:00−8˚св61095100 2.6 1011515
03:00−9˚св4795100 5.9 1012429
06:00−10˚ссв4795100 2.9 1013382
09:00−10˚ссв3495100 4.4 1015266
12:00−10˚ссз3391100 0.3 1016359
15:00−10˚зсз3491100 0.3 1016424
18:00−14˚сз229595 0.0 101820
21:00−14˚з129496 0.0 101920
19 января, вт
вт1900:00−15˚з1196100 0.0 101920
03:00−16˚ююз119899 0.0 102020
06:00−14˚ююв229799 0.1 102020
09:00−12˚ю229699 0.1 102051
12:00−8˚зюз3593100 0.1 1020422
15:00−9˚з3592100 0.2 1020408
18:00−12˚зсз3395100 0.1 102144
21:00−17˚сз339366 0.1 102325